Location: Miss�
(46.9484°N, 0.1922°W)
Time: 23:35:17
(UTC+00:00)

H-2A R/B - Pass Details

Date: 02 March 2021
Orbit: 577 x 654 km, 98.5° (Epoch: 14 April)

Event Time Altitude Azimuth Distance (km) Brightness Sun altitude
Rises 18:15:07 0° 8° (N) 2,809 5.3 -5.4°
Reaches altitude 10° 18:17:20 10° 3° (N) 1,902 4.5 -5.8°
Maximum altitude 18:21:16 46° 290° (WNW) 782 3.2 -6.5°
Drops below altitude 10° 18:25:11 10° 217° (SW) 1,894 5.2 -7.1°
Sets 18:27:23 0° 211° (SSW) 2,794 5.9 -7.5°
